Date String (YYYY-MM-DD hh:mm:ss) UTC,Instrument flags,absolute air pressure of the measurement (hPa),sample flow rate (lpm),inlet stack bypass flow (lpm),air temperature of the measurement (°C),ambient temperature measured by the external sensor (°C),aerosol sample conditioner tube jacket temperature (°C),OPC LED temperature (°C),internal box temperature (°C),relative humidity of the measurement (%),span deviation,mass concentration of particles derived from Lorenz-Mie calculation of OPC scattering (μg/m³),mass concentration of particles derived from Lorenz-Mie calculation of OPC scattering (μg/m³),mass concentration of particles derived from Lorenz-Mie calculation of OPC scattering (μg/m³)
DateTimeUTC,F1_M11,P_M11,Q1_M11,Q2_M11,T1_M11,T2_M11,T3_M11,T4_M11,T5_M11,U1_M11,ZSPAN_M11,X0_M11,X2_M11,X1_M11
2024-02-12 03:00:00,SystemResetWarning,0829.1,5.00,000.00,018.2,017.5,000.0,026.8,020.0,12.0,0000.0,0006.72,0004.01,0003.86
2024-02-12 03:01:00,SystemResetWarning,0829.1,5.00,000.00,018.2,017.5,000.0,026.9,020.0,12.0,0000.0,0006.62,0004.00,0003.85
2024-02-12 03:02:00,SystemResetWarning,0829.1,5.00,000.00,018.2,017.5,000.0,026.9,020.0,11.9,0000.0,0006.58,0003.98,0003.84
2024-02-12 03:03:00,SystemResetWarning,0829.1,5.00,000.00,018.2,017.5,000.0,026.8,020.0,11.9,0000.0,0006.52,0003.95,0003.81
2024-02-12 03:04:00,SystemResetWarning,0829.1,5.00,000.00,018.2,017.5,000.0,026.8,020.0,11.8,0000.0,0006.46,0003.94,0003.79
2024-02-12 03:05:00,SystemResetWarning,0829.0,5.01,000.00,018.2,017.5,000.0,026.8,020.0,11.7,0000.0,0006.42,0003.92,0003.77
2024-02-12 03:06:00,SystemResetWarning,0829.0,5.00,000.00,018.2,017.5,000.0,026.8,020.0,11.8,0000.0,0006.42,0003.90,0003.75
2024-02-12 03:07:00,SystemResetWarning,0829.0,4.99,000.00,018.2,017.5,000.0,026.8,020.0,11.9,0000.0,0006.55,0003.90,0003.73
2024-02-12 03:08:00,SystemResetWarning,0829.0,5.00,000.00,018.2,017.5,000.0,026.8,020.0,11.8,0000.0,0006.37,0003.87,0003.70
2024-02-12 03:09:00,SystemResetWarning,0829.1,5.00,000.00,018.2,017.5,000.0,026.8,020.0,11.8,0000.0,0006.00,0003.86,0003.68
2024-02-12 03:10:00,SystemResetWarning,0829.1,4.99,000.00,018.2,017.5,000.0,026.8,020.0,11.8,0000.0,0005.74,0003.84,0003.67
2024-02-12 03:11:00,SystemResetWarning,0829.1,5.00,000.00,018.2,017.4,000.0,026.9,020.0,11.9,0000.0,0005.75,0003.84,0003.65
2024-02-12 03:12:00,SystemResetWarning,0829.0,5.00,000.00,018.2,017.4,000.0,026.9,020.0,12.0,0000.0,0005.76,0003.84,0003.65
2024-02-12 03:13:00,SystemResetWarning,0829.0,5.00,000.00,018.2,017.4,000.0,026.9,020.0,12.0,0000.0,0005.64,0003.81,0003.62
2024-02-12 03:14:00,SystemResetWarning,0829.0,5.00,000.00,018.2,017.4,000.0,026.9,020.0,12.0,0000.0,0005.64,0003.80,0003.60
2024-02-12 03:15:00,SystemResetWarning,0829.0,5.00,000.00,018.2,017.4,000.0,026.9,020.0,11.9,0000.0,0005.38,0003.77,0003.58
2024-02-12 03:16:00,SystemResetWarning,0829.0,5.01,000.00,018.2,017.4,000.0,026.9,020.0,12.0,0000.0,0005.37,0003.76,0003.58
2024-02-12 03:17:00,SystemResetWarning,0829.0,5.00,000.00,018.2,017.4,000.0,026.9,020.0,12.0,0000.0,0005.38,0003.76,0003.57
2024-02-12 03:18:00,SystemResetWarning,0829.0,4.99,000.00,018.2,017.4,000.0,026.9,020.0,12.0,0000.0,0005.55,0003.78,0003.58
2024-02-12 03:19:00,SystemResetWarning,0829.0,5.00,000.00,018.2,017.4,000.0,026.9,020.0,12.0,0000.0,0006.81,0003.80,0003.58
2024-02-12 03:20:00,SystemResetWarning,0829.1,5.01,000.00,018.2,017.4,000.0,026.9,020.0,11.9,0000.0,0006.79,0003.80,0003.58
2024-02-12 03:21:00,SystemResetWarning,0829.1,5.01,000.00,018.2,017.4,000.0,026.9,020.0,11.9,0000.0,0006.69,0003.77,0003.56
2024-02-12 03:22:00,SystemResetWarning,0829.1,5.00,000.00,018.2,017.4,000.0,026.9,020.0,11.9,0000.0,0006.62,0003.73,0003.54
2024-02-12 03:23:00,SystemResetWarning,0829.1,5.00,000.00,018.2,017.4,000.0,026.9,020.0,11.9,0000.0,0006.61,0003.72,0003.52
2024-02-12 03:24:00,SystemResetWarning,0829.1,5.01,000.00,018.3,018.0,000.0,027.0,020.3,11.9,0000.0,0006.67,0003.73,0003.52
2024-02-12 03:25:00,SystemResetWarning,0829.1,5.00,000.00,018.5,018.7,000.0,027.1,020.7,11.8,0000.0,0006.66,0003.72,0003.52
2024-02-12 03:26:00,SystemResetWarning,0829.1,5.00,000.00,018.7,018.9,000.0,027.0,020.8,11.6,0000.0,0006.63,0003.72,0003.52
2024-02-12 03:27:00,SystemResetWarning,0829.1,4.99,000.00,018.6,018.7,000.0,026.9,020.6,11.7,0000.0,0006.67,0003.74,0003.51
2024-02-12 03:28:00,SystemResetWarning,0829.1,5.00,000.00,018.6,018.6,000.0,026.9,020.4,11.7,0000.0,0006.65,0003.73,0003.49
2024-02-12 03:29:00,SystemResetWarning,0829.1,5.00,000.00,018.6,018.4,000.0,026.9,020.3,11.8,0000.0,0006.43,0003.70,0003.48
2024-02-12 03:30:00,SystemResetWarning,0829.1,5.00,000.00,018.5,018.3,000.0,026.9,020.3,11.8,0000.0,0005.10,0003.68,0003.48
2024-02-12 03:31:00,SystemResetWarning,0829.1,5.00,000.00,018.5,018.2,000.0,026.8,020.2,11.8,0000.0,0005.06,0003.68,0003.47
2024-02-12 03:32:00,SystemResetWarning,0829.1,5.01,000.00,018.5,018.1,000.0,026.8,020.2,11.7,0000.0,0005.24,0003.71,0003.48
2024-02-12 03:33:00,SystemResetWarning,0829.1,5.00,000.00,018.5,018.0,000.0,026.8,020.1,11.7,0000.0,0005.27,0003.71,0003.49
2024-02-12 03:34:00,SystemResetWarning,0829.1,5.00,000.00,018.4,017.9,000.0,026.8,020.1,11.7,0000.0,0005.24,0003.70,0003.48
2024-02-12 03:35:00,SystemResetWarning,0829.1,5.00,000.00,018.4,017.9,000.0,026.8,020.1,11.7,0000.0,0005.17,0003.69,0003.48
2024-02-12 03:36:00,SystemResetWarning,0829.1,4.99,000.00,018.4,017.8,000.0,026.8,020.1,11.7,0000.0,0005.13,0003.69,0003.48
2024-02-12 03:37:00,SystemResetWarning,0829.1,5.00,000.00,018.4,017.8,000.0,026.8,020.0,11.8,0000.0,0005.15,0003.70,0003.49
2024-02-12 03:38:00,SystemResetWarning,0829.1,5.01,000.00,018.3,017.7,000.0,026.8,020.0,11.8,0000.0,0005.15,0003.69,0003.49
2024-02-12 03:39:00,SystemResetWarning,0829.1,5.00,000.00,018.3,017.7,000.0,026.8,020.0,11.8,0000.0,0005.14,0003.70,0003.50
2024-02-12 03:40:00,SystemResetWarning,0829.1,4.99,000.00,018.3,017.7,000.0,026.8,020.0,11.7,0000.0,0005.14,0003.69,0003.50
2024-02-12 03:41:00,SystemResetWarning,0829.1,4.99,000.00,018.3,017.7,000.0,026.8,020.0,11.7,0000.0,0005.16,0003.71,0003.50
2024-02-12 03:42:00,SystemResetWarning,0829.1,4.99,000.00,018.3,017.7,000.0,026.9,020.0,11.6,0000.0,0005.13,0003.70,0003.50
2024-02-12 03:43:00,SystemResetWarning,0829.1,5.01,000.00,018.3,017.7,000.0,026.8,020.0,11.6,0000.0,0004.99,0003.67,0003.49
2024-02-12 03:44:00,SystemResetWarning,0829.1,5.01,000.00,018.3,017.6,000.0,026.9,020.0,11.6,0000.0,0005.08,0003.68,0003.49
2024-02-12 03:45:00,SystemResetWarning,0829.1,4.99,000.00,018.3,017.6,000.0,026.8,020.0,11.6,0000.0,0005.18,0003.71,0003.49
2024-02-12 03:46:00,SystemResetWarning,0829.1,5.01,000.00,018.2,017.6,000.0,026.8,020.0,11.7,0000.0,0005.38,0003.74,0003.48
2024-02-12 03:47:00,SystemResetWarning,0829.1,5.01,000.00,018.2,017.6,000.0,026.8,020.0,11.7,0000.0,0005.48,0003.74,0003.46
2024-02-12 03:48:00,SystemResetWarning,0829.1,5.00,000.00,018.2,017.6,000.0,026.9,020.0,11.6,0000.0,0005.52,0003.72,0003.44
2024-02-12 03:49:00,SystemResetWarning,0829.1,5.00,000.00,018.2,017.6,000.0,026.9,020.0,11.6,0000.0,0005.47,0003.71,0003.42
2024-02-12 03:50:00,SystemResetWarning,0829.1,5.00,000.00,018.2,017.5,000.0,026.9,020.0,11.6,0000.0,0005.41,0003.68,0003.39
2024-02-12 03:51:00,SystemResetWarning,0829.1,5.00,000.00,018.2,017.5,000.0,026.9,020.0,11.7,0000.0,0005.32,0003.65,0003.37
2024-02-12 03:52:00,SystemResetWarning,0829.1,4.99,000.00,018.2,017.5,000.0,026.9,020.0,11.7,0000.0,0005.26,0003.61,0003.35
2024-02-12 03:53:00,SystemResetWarning,0829.1,5.00,000.00,018.2,017.5,000.0,026.9,020.0,11.7,0000.0,0005.41,0003.60,0003.33
2024-02-12 03:54:00,SystemResetWarning,0829.1,5.00,000.00,018.2,017.5,000.0,026.9,020.0,11.7,0000.0,0005.47,0003.60,0003.32
2024-02-12 03:55:00,SystemResetWarning,0829.1,4.99,000.00,018.2,017.5,000.0,026.8,020.0,11.7,0000.0,0005.42,0003.58,0003.31
2024-02-12 03:56:00,SystemResetWarning,0829.0,5.00,000.00,018.2,017.5,000.0,026.9,020.0,11.7,0000.0,0005.23,0003.53,0003.30
2024-02-12 03:57:00,SystemResetWarning,0829.1,5.00,000.00,018.2,017.5,000.0,026.9,020.0,11.7,0000.0,0004.97,0003.48,0003.29
2024-02-12 03:58:00,SystemResetWarning,0829.1,5.01,000.00,018.2,017.4,000.0,026.9,020.0,11.7,0000.0,0004.88,0003.47,0003.29
2024-02-12 03:59:00,SystemResetWarning,0829.1,5.00,000.00,018.2,017.4,000.0,026.9,020.0,11.6,0000.0,0004.81,0003.45,0003.29
